This is the latest recevied weather packets stored in our database for station/object VR2R-13. If no packets are shown the sender has not sent any weather packets the latest 1 day(s).
| Time | Temp. | Humidity | Pressure | Rain* | Wind** | Luminosity | Snow |
|---|---|---|---|---|---|---|---|
| 1778030570 | 17.22° C | 98% | 914.9 hPa | 0 mm | 2.68 m/s, 72° | - | - |
| 1778030270 | 17.22° C | 98% | 915 hPa | 0 mm | 0.45 m/s, 82° | - | - |
| 1778030268 | 17.22° C | 98% | 915 hPa | 0 mm | 0.45 m/s, 78° | - | - |
| 1778029969 | 16.67° C | 98% | 915 hPa | 0 mm | 0 m/s | - | - |
| 1778029909 | 17.22° C | 98% | 915 hPa | 0 mm | 0.89 m/s, 94° | - | - |
| 1778029668 | 17.22° C | 98% | 915 hPa | 0 mm | 1.79 m/s, 67° | - | - |
| 1778029549 | 17.22° C | 98% | 915 hPa | 0 mm | 0.45 m/s, 83° | - | - |
| 1778029368 | 16.67° C | 98% | 915 hPa | 0 mm | 1.34 m/s, 72° | - | - |
| 1778029189 | 16.67° C | 98% | 915 hPa | 0 mm | 1.34 m/s, 38° | - | - |
| 1778029068 | 16.67° C | 98% | 915 hPa | 0 mm | 0.89 m/s, 78° | - | - |
| 1778028829 | 16.67° C | 98% | 915 hPa | 0 mm | 2.24 m/s, 52° | - | - |
| 1778028768 | 16.67° C | 98% | 915 hPa | 0 mm | 2.24 m/s, 51° | - | - |
| 1778028470 | 16.67° C | 97% | 914.9 hPa | 0 mm | 3.13 m/s, 70° | - | - |
| 1778028468 | 16.67° C | 97% | 914.9 hPa | 0 mm | 3.13 m/s, 52° | - | - |
| 1778028168 | 16.67° C | 98% | 914.9 hPa | 0 mm | 0 m/s | - | - |
| 1778028109 | 16.67° C | 98% | 915 hPa | 0 mm | 2.24 m/s, 83° | - | - |
| 1778027868 | 16.67° C | 98% | 914.9 hPa | 0 mm | 0.89 m/s, 84° | - | - |
| 1778027568 | 16.67° C | 97% | 914.9 hPa | 0 mm | 2.24 m/s, 76° | - | - |
| 1778027390 | 16.67° C | 98% | 914.9 hPa | 0 mm | 0.89 m/s, 78° | - | - |
| 1778027268 | 16.67° C | 98% | 914.8 hPa | 0 mm | 2.24 m/s, 77° | - | - |
| 1778027029 | 16.67° C | 97% | 914.8 hPa | 0 mm | 2.68 m/s, 55° | - | - |
| 1778026968 | 16.67° C | 97% | 914.8 hPa | 0 mm | 1.79 m/s, 57° | - | - |
| 1778026668 | 16.67° C | 98% | 914.6 hPa | 0 mm | 1.79 m/s, 78° | - | - |
| 1778026368 | 16.67° C | 98% | 914.7 hPa | 0 mm | 1.34 m/s, 66° | - | - |
| 1778026309 | 16.11° C | 98% | 914.7 hPa | 0 mm | 0 m/s | - | - |
* Rain latest hour (hover to see other rain measurements)
** Current wind speed in m/s (hover to see current wind gust speed)